Location: Mascot Post Office (historical)
(40.2645°N, 99.5462°W)
Time: 17:10:32
(UTC+00:00)

Aureole 2 Rocket - Pass Details

Date: 14 July 2020
Orbit: 304 x 429 km, 73.9° (Epoch: 04 August)

Event Time Altitude Azimuth Distance (km) Brightness Sun altitude
Rises 04:30:42 0° 340° (NNW) 2,207 7.3 -20.8°
Reaches altitude 10° 04:32:39 10° 339° (NNW) 1,378 6.0 -21.0°
Enters shadow 04:35:07 57° 329° (NNW) 457 2.7 -21.2°
